CZ-6A DEB

Satellite information

Favourite Embed

Satellite Type and Status

DEBRISIN ORBIT

Key statistics

Satellite CZ-6A DEB at a glance.

Uptime

968

Days in orbit

Revolutions

≈ 14.6

Per day

Orbit

SSO

Sun Synchronous Orbit

Inclination

98.8

Latest

Satellite identification and parameters

Extended collection of information and parameters for CZ-6A DEB.

Object identification

Identified? True

Debris? True

Object name: CZ-6A DEB

International designator: 2022-151QZ

Object number (NORAD): 54912

Object ID (CCSDS): 54912

Country: PEOPLES REPUBLIC OF CHINA (PRC)

Current information (Y/N): Y

RCS size: SMALL

Orbital parameters

Period: 98.737 minutes

Inclination: 98.7874 deg

SMA: 7076.416 km

Apoapsis: 775.073 km

Periapsis: 621.489 km

RAAN: 246.0629 deg

Eccentricy: 0.0108518

Argument of periapsis: 300.616 deg

Mean anomaly: 58.4371 deg

Mean motion: 14.58420306 rev/day

Mean motion (dot): 0.00004689 rev/day2

B* drag term: 0.00094358 1/REarth

Two-line elements (TLE)

Creation date: July 5, 2025, 5:45 p.m.

Reference frame: TEME

Reference center: EARTH

Epoch: July 5, 2025, 2:34 a.m. UTC

TLE line 0: 0 CZ-6A DEB

TLE line 1: 1 54912U 22151QZ 25186.10757389 .00004689 00000-0 94358-3 0 9993

TLE line 2: 2 54912 98.7874 246.0629 0108518 300.6160 58.4371 14.58420306135914

Live tracking on map

Real-time ground track for satellite CZ-6A DEB.

In-orbit conjunctions

A list of the most updated potential collisions computed for object CZ-6A DEB.

Target Orbit TCA Probability of collision Miss distance Type
IRIDIUM 33 DEB LEO 2024-12-17 13:09:28 0.0001013524 128.0 (m) DEBRIS
DELTA 1 DEB SSO 2024-09-23 19:13:11 0.0001658199 180.0 (m) DEBRIS

Associated space launch

Chinese satellite reported for atmospheric/ocean/environmental/spatial parameter research purposes, details TBD.

CZ-6A DEB was lifted into orbit during the mission ‘Long March 6A | Yunhai 3’, on board a Long March 6A space rocket.

The launch took place on Nov. 11, 2022, 10:52 p.m. from Launch Complex 9A.

For more information about the launch, click the button.

Launch to space Long March 6A | Yunhai 3
Long March 6A | Yunhai 3

Agency: N/A

Status: Launch Successful

Launch date: Nov. 11, 2022, 10:52 p.m. UTC

Rocket: Long March 6A

Launch pad: Launch Complex 9A

Location: Taiyuan Satellite Launch Center, People's Republic of China

...

Latest news about this satellite

There are no fresh news available about this satellite. Check back as we update our databases every day.


Newsletter sign-up

Weekly statistics, charts and insights to help you stay on top of the space industry.